Home   Weather   Chatham-Kent   Past weeks

Flag for Canada Past Weather in Chatham-Kent, Ontario, Canada — Yesterday and Last 2 Weeks

Now
79 °F

Partly sunny.


Feels Like: 82 °F
Forecast: 71 / 78 °F
Wind: 9 mph from Northwest

Location: Windsor Weather Station

Current Time: Jul 22, 2017 at 10:56:19 pm

Latest Report: Jul 22, 2017 at 9:00 pm


Visibility: 15 mi

Pressure: 29.74 "Hg

Humidity: 79%

Dew Point: 72 °F

Location of Chatham-KentLocation

Past Weather in Chatham-Kent — Graph

°F

Chatham-Kent Temperature Yesterday

Maximum temperature yesterday: 84 °F (at 2:00 pm)
Minimum temperature yesterday: 72 °F (at 3:00 am)
Average temperature yesterday: 77 °F

High & Low Weather Summary for the Past Weeks

 TemperatureHumidityPressure
High90 °F (Jul 19, 4:00 pm)100% (Jul 7, 10:47 pm)30.11 "Hg (Jul 7, 10:47 pm)
Low57 °F (Jul 9, 5:00 am)38% (Jul 8, 8:00 pm)29.70 "Hg (Jul 22, 6:22 pm)
Average73 °F79%29.95 "Hg
* Reported Jul 7 9:00 pm — Jul 22 9:00 pm, Chatham-Kent. Weather by CustomWeather, © 2017

Note: Actual official high and low records may vary slightly from our data, if they occured in-between our weather recording intervals... More about our weather records

Advertising

Chatham-Kent Weather History for the Previous 24 Hours

Scroll right to see more
 ConditionsComfort  
Time TempWeatherWind HumidityBarometerVisibility
9:00 pm
Sat, Jul 22
79 °FPartly sunny.9 mph79%29.74 "Hg15 mi
8:00 pm79 °FBroken clouds.7 mph84%29.74 "Hg15 mi
7:00 pm79 °FBroken clouds.10 mph89%29.72 "Hg15 mi
6:22 pm81 °FScattered showers. Partly sunny.5 mph79%29.70 "Hg15 mi
6:00 pm79 °FSprinkles. Mostly cloudy.7 mph89%29.71 "Hg15 mi
5:00 pm81 °FMostly cloudy.3 mph84%29.71 "Hg15 mi
4:00 pm79 °FMostly cloudy.No wind89%29.72 "Hg12 mi
3:42 pm79 °FSprinkles. Mostly cloudy.7 mph89%29.72 "Hg15 mi
3:23 pm79 °FMostly cloudy.7 mph89%29.73 "Hg15 mi
3:00 pm81 °FSprinkles. Partly sunny.3 mph79%29.74 "Hg15 mi
2:00 pm82 °FBroken clouds.6 mph70%29.76 "Hg15 mi
1:00 pm79 °FBroken clouds.6 mph79%29.78 "Hg15 mi
12:00 pm77 °FBroken clouds.9 mph83%29.80 "Hg15 mi
11:20 am77 °FMostly cloudy.10 mph83%29.81 "Hg15 mi
11:00 am75 °FLight rain. Cloudy.10 mph89%29.80 "Hg15 mi
10:53 am77 °FLight rain. Cloudy.9 mph83%29.80 "Hg15 mi
10:00 am75 °FPartly sunny.7 mph89%29.81 "Hg15 mi
9:00 am75 °FCloudy.7 mph89%29.84 "Hg15 mi
8:11 am75 °FMostly cloudy.3 mph94%29.84 "Hg8 mi
8:00 am75 °FCloudy.3 mph94%29.83 "Hg10 mi
7:05 am73 °FLight rain. Mostly cloudy.8 mph94%29.83 "Hg8 mi
6:50 am73 °FMostly cloudy.6 mph94%29.83 "Hg10 mi
6:00 am75 °FMostly cloudy.5 mph89%29.85 "Hg12 mi
5:27 am75 °FLight rain. Overcast.6 mph89%29.86 "Hg12 mi
5:00 am75 °FOvercast.6 mph89%29.85 "Hg12 mi
4:00 am75 °FOvercast.7 mph94%29.86 "Hg12 mi
3:00 am73 °FOvercast.2 mph94%29.88 "Hg12 mi
2:40 am73 °FMostly cloudy.5 mph94%29.89 "Hg12 mi
2:00 am75 °FLight rain. Mostly cloudy.3 mph83%29.90 "Hg12 mi
1:00 am75 °FLight rain. Overcast.7 mph83%29.92 "Hg12 mi
12:00 am75 °FOvercast.2 mph83%29.93 "Hg15 mi
11:00 pm
Fri, Jul 21
75 °FPassing clouds.3 mph89%29.93 "Hg10 mi
10:00 pm73 °FMostly cloudy.2 mph94%29.93 "Hg12 mi
Weather by CustomWeather, © 2017

See weather overviewHow to use our weather pages